Luverne, MN

3:48 PM CDT on August 19, 2017 (GMT -0500)
Luverne

Weather History for KLYV - August, 2013

Change the Weather History Date:

Saturday, August 10, 2013

  Actual Average (KPQN) Record (KPQN)
Temperature  
Mean Temperature 65 °F -  
Max Temperature 77 °F 76 °F 89 °F (2016)
Min Temperature 53 °F 56 °F 48 °F (2001)
Growing Degree Days 15 (Base 50)    
Moisture  
Dew Point 57 °F    
Average Humidity 80    
Maximum Humidity 94    
Minimum Humidity 53    
Precipitation  
Precipitation 0.41 in - - ()
Sea Level Pressure  
Sea Level Pressure 30.17 in    
Wind  
Wind Speed 2 mph (SSE)    
Max Wind Speed 8 mph    
Max Gust Speed -    
Visibility 9 miles    
Events Rain , Thunderstorm    
Averages and records for this station are not official NWS values.
T = Trace of Precipitation, MM = Missing Value Source: NWS Daily Summary

Daily Weather History Graph

Daily Weather History Graph

Search for Another Location

Airport or City:

Trip Planner

Search our weather history database for the weather conditions in past years. The results will help you decide how hot, cold, wet, or windy it might be!

Date:

Astronomy

Aug. 10, 2013 Rise Set
Actual Time 6:24 AM CDT 8:35 PM CDT
Civil Twilight 5:52 AM CDT 9:06 PM CDT
Nautical Twilight 5:13 AM CDT 9:45 PM CDT
Astronomical Twilight 4:30 AM CDT 10:28 PM CDT
Moon 10:21 AM CDT (8/10) 10:07 PM CDT (8/10)
Length of Visible Light 15h 14m
Length of Day
14h 11m
Waxing Crescent, 14% of the Moon is Illuminated
Aug 10
Waxing Crescent
Aug 14
First Quarter
Aug 20
Full
Aug 28
Last Quarter
Sep 5
New

Hourly Weather History & Observations

Time (CDT) Temp. Dew Point Humidity Pressure Visibility Wind Dir Wind Speed Gust Speed Precip Events Conditions
12:13 AM 57.2 °F 53.6 °F 88% 30.18 in 10.0 mi Calm Calm - N/A   Clear
12:33 AM 55.4 °F 51.8 °F 88% 30.17 in 10.0 mi Calm Calm - N/A   Clear
12:54 AM 55.4 °F 51.8 °F 88% 30.17 in 10.0 mi Calm Calm - N/A   Clear
1:13 AM 55.4 °F 51.8 °F 88% 30.17 in 10.0 mi Calm Calm - N/A   Clear
1:33 AM 55.4 °F 51.8 °F 88% 30.17 in 10.0 mi Calm Calm - N/A   Clear
1:54 AM 55.4 °F 51.8 °F 88% 30.18 in 10.0 mi Calm Calm - N/A   Clear
2:13 AM 53.6 °F 51.8 °F 94% 30.19 in 7.0 mi Calm Calm - N/A   Clear
2:33 AM 53.6 °F 51.8 °F 94% 30.19 in 10.0 mi Calm Calm - N/A   Clear
2:53 AM 55.4 °F 53.6 °F 94% 30.20 in 7.0 mi Calm Calm - N/A   Clear
3:13 AM 55.4 °F 53.6 °F 94% 30.20 in 7.0 mi Calm Calm - N/A   Clear
3:33 AM 53.6 °F 51.8 °F 94% 30.20 in 10.0 mi Calm Calm - N/A   Clear
3:53 AM 53.6 °F 50.0 °F 88% 30.20 in 10.0 mi Calm Calm - N/A   Clear
4:13 AM 53.6 °F 51.8 °F 94% 30.20 in 10.0 mi Calm Calm - N/A   Clear
4:33 AM 53.6 °F 50.0 °F 88% 30.20 in 10.0 mi Calm Calm - N/A   Scattered Clouds
4:53 AM 53.6 °F 50.0 °F 88% 30.21 in 10.0 mi Calm Calm - N/A   Mostly Cloudy
5:13 AM 53.6 °F 51.8 °F 94% 30.20 in 10.0 mi NE 4.6 mph - N/A   Scattered Clouds
5:33 AM 53.6 °F 51.8 °F 94% 30.20 in 10.0 mi Calm Calm - N/A   Clear
5:53 AM 53.6 °F 51.8 °F 94% 30.20 in 10.0 mi Calm Calm - N/A   Clear
6:13 AM 53.6 °F 51.8 °F 94% 30.21 in 10.0 mi Calm Calm - N/A   Mostly Cloudy
6:33 AM 53.6 °F 51.8 °F 94% 30.21 in 10.0 mi NE 3.5 mph - N/A   Mostly Cloudy
6:53 AM 53.6 °F 51.8 °F 94% 30.21 in 10.0 mi Calm Calm - N/A   Mostly Cloudy
7:13 AM 53.6 °F 51.8 °F 94% 30.22 in 10.0 mi Calm Calm - N/A   Mostly Cloudy
7:33 AM 53.6 °F 51.8 °F 94% 30.22 in 10.0 mi NE 3.5 mph - N/A   Scattered Clouds
7:53 AM 55.4 °F 51.8 °F 88% 30.22 in 10.0 mi NE 3.5 mph - N/A   Mostly Cloudy
8:13 AM 59.0 °F 53.6 °F 82% 30.21 in 10.0 mi Calm Calm - N/A   Overcast
8:34 AM 62.6 °F 55.4 °F 77% 30.21 in 10.0 mi Calm Calm - N/A   Overcast
8:53 AM 64.4 °F 53.6 °F 68% 30.21 in 10.0 mi Calm Calm - N/A   Overcast
9:13 AM 66.2 °F 53.6 °F 64% 30.21 in 10.0 mi ESE 3.5 mph - N/A   Overcast
9:34 AM 68.0 °F 53.6 °F 60% 30.21 in 10.0 mi South 4.6 mph - N/A   Scattered Clouds
9:53 AM 69.8 °F 55.4 °F 60% 30.21 in 10.0 mi South 5.8 mph - N/A   Clear
10:13 AM 71.6 °F 55.4 °F 57% 30.21 in 10.0 mi SSE 4.6 mph - N/A   Mostly Cloudy
10:34 AM 68.0 °F 55.4 °F 64% 30.21 in 10.0 mi South 4.6 mph - N/A   Overcast
10:53 AM 69.8 °F 55.4 °F 60% 30.20 in 10.0 mi SSE 4.6 mph - N/A   Scattered Clouds
11:13 AM 71.6 °F 57.2 °F 60% 30.20 in 10.0 mi SSW 5.8 mph - N/A   Clear
11:34 AM 73.4 °F 59.0 °F 61% 30.21 in 10.0 mi SSW 4.6 mph - N/A   Clear
11:53 AM 73.4 °F 59.0 °F 61% 30.20 in 10.0 mi SW 4.6 mph - N/A   Clear
12:13 PM 73.4 °F 59.0 °F 61% 30.20 in 10.0 mi Calm Calm - N/A   Scattered Clouds
12:34 PM 73.4 °F 59.0 °F 61% 30.20 in 10.0 mi SW 4.6 mph - N/A   Clear
12:53 PM 77.0 °F 59.0 °F 54% 30.19 in 10.0 mi SW 4.6 mph - N/A   Scattered Clouds
1:13 PM 77.0 °F 59.0 °F 54% 30.19 in 10.0 mi SSW 4.6 mph - N/A   Scattered Clouds
1:34 PM 75.2 °F 59.0 °F 57% 30.18 in 10.0 mi WSW 6.9 mph - N/A   Scattered Clouds
1:53 PM 75.2 °F 57.2 °F 53% 30.18 in 10.0 mi SSW 5.8 mph - N/A   Mostly Cloudy
2:13 PM 73.4 °F 57.2 °F 57% 30.17 in 10.0 mi SW 5.8 mph - N/A   Mostly Cloudy
2:34 PM 73.4 °F 59.0 °F 61% 30.17 in 10.0 mi SSW 3.5 mph - N/A   Scattered Clouds
2:53 PM 73.4 °F 59.0 °F 61% 30.17 in 10.0 mi SSW 5.8 mph - N/A   Mostly Cloudy
3:13 PM 73.4 °F 59.0 °F 61% 30.17 in 10.0 mi SW 3.5 mph - N/A   Overcast
3:33 PM 69.8 °F 62.6 °F 78% 30.21 in 5.0 mi West 8.1 mph - 0.01 in Rain Heavy Rain
3:53 PM 68.0 °F 62.6 °F 83% 30.20 in 4.0 mi West 5.8 mph - 0.07 in Rain Rain
4:13 PM 68.0 °F 62.6 °F 83% 30.17 in 3.0 mi East 3.5 mph - 0.07 in Rain Heavy Rain
4:33 PM 66.2 °F 62.6 °F 88% 30.16 in 4.0 mi Calm Calm - 0.13 in Rain Light Rain
4:53 PM 68.0 °F 62.6 °F 83% 30.15 in 10.0 mi ESE 3.5 mph - 0.15 in Rain Light Rain
5:14 PM 68.0 °F 60.8 °F 78% 30.14 in 10.0 mi ESE 3.5 mph - N/A   Mostly Cloudy
5:33 PM 69.8 °F 62.6 °F 78% 30.14 in 10.0 mi East 3.5 mph - N/A   Scattered Clouds
5:53 PM 69.8 °F 62.6 °F 78% 30.14 in 10.0 mi East 3.5 mph - N/A   Clear
6:14 PM 69.8 °F 62.6 °F 78% 30.14 in 10.0 mi East 5.8 mph - N/A   Scattered Clouds
6:33 PM 69.8 °F 62.6 °F 78% 30.13 in 10.0 mi East 3.5 mph - N/A   Scattered Clouds
6:53 PM 69.8 °F 62.6 °F 78% 30.12 in 10.0 mi East 4.6 mph - N/A   Scattered Clouds
7:14 PM 69.8 °F 62.6 °F 78% 30.11 in 10.0 mi East 4.6 mph - N/A   Mostly Cloudy
7:33 PM 68.0 °F 62.6 °F 83% 30.10 in 10.0 mi East 4.6 mph - N/A   Mostly Cloudy
7:53 PM 68.0 °F 62.6 °F 83% 30.11 in 7.0 mi Calm Calm - N/A   Mostly Cloudy
8:14 PM 68.0 °F 62.6 °F 83% 30.09 in 10.0 mi East 3.5 mph - N/A   Overcast
8:33 PM 68.0 °F 62.6 °F 83% 30.10 in 5.0 mi Calm Calm - 0.01 in Rain Light Rain
8:53 PM 68.0 °F 62.6 °F 83% 30.10 in 7.0 mi East 4.6 mph - 0.03 in Rain , Thunderstorm Thunderstorms and Rain
9:13 PM 66.2 °F 62.6 °F 88% 30.09 in 5.0 mi SSE 4.6 mph - 0.03 in Rain , Thunderstorm Thunderstorms and Rain
9:33 PM 66.2 °F 62.6 °F 88% 30.08 in 5.0 mi SSE 6.9 mph - 0.04 in Rain , Thunderstorm Light Thunderstorms and Rain
9:53 PM 66.2 °F 62.6 °F 88% 30.09 in 7.0 mi SSE 3.5 mph - 0.04 in Rain Light Rain
10:13 PM 66.2 °F 62.6 °F 88% 30.09 in 7.0 mi East 3.5 mph - 0.02 in Rain Light Rain
10:33 PM 66.2 °F 62.6 °F 88% 30.07 in 5.0 mi ESE 4.6 mph - 0.02 in Rain , Thunderstorm Thunderstorms and Rain
10:53 PM 64.4 °F 62.6 °F 94% 30.07 in 5.0 mi Calm Calm - 0.03 in Rain Light Rain
11:13 PM 64.4 °F 62.6 °F 94% 30.09 in 5.0 mi Calm Calm - 0.02 in Rain Rain
11:33 PM 64.4 °F 62.6 °F 94% 30.09 in 4.0 mi Calm Calm - 0.06 in Rain , Thunderstorm Rain
11:54 PM 64.4 °F 62.6 °F 94% 30.09 in 3.0 mi SW 4.6 mph - 0.09 in Rain Rain